• In Deutschland
  • Länderverzeichnis
  • Für 7 Tage
  • Wassertemperatur
  • Satellitenkarten
  • Wetterkarte
  • Widgets
  • user-avatar
    Anmelden

    Stündliche Wetter Batatais

    Heute, 20 Januar, Samstag

    Zeit Temperatur Niederschläge Wind Luftdruck Luftfeuchtigkeit
    00:00 +22°C° 0,1 mm 1 m/S 689 mmHg 92%
    01:00 +22°C° 0,1 mm 1 m/S 688 mmHg 91%
    02:00 +21°C° 0,1 mm 1 m/S 688 mmHg 91%
    03:00 +21°C° 0,1 mm 1 m/S 688 mmHg 91%
    04:00 +21°C° 0 mm 1 m/S 688 mmHg 91%
    05:00 +21°C° 0 mm 1 m/S 688 mmHg 91%
    06:00 +20°C° 0 mm 1 m/S 688 mmHg 91%
    07:00 +23°C° 0 mm 1 m/S 689 mmHg 85%
    08:00 +25°C° 0 mm 2 m/S 689 mmHg 79%
    09:00 +27°C° 0 mm 2 m/S 690 mmHg 74%
    10:00 +28°C° 0,4 mm 2 m/S 690 mmHg 68%
    11:00 +29°C° 0,4 mm 2 m/S 690 mmHg 62%
    12:00 +30°C° 0,4 mm 2 m/S 690 mmHg 57%
    13:00 +30°C° 0,2 mm 1 m/S 689 mmHg 56%
    14:00 +30°C° 0,2 mm 1 m/S 689 mmHg 56%
    15:00 +30°C° 0,2 mm 1 m/S 688 mmHg 56%
    16:00 +29°C° 0,3 mm 1 m/S 688 mmHg 62%
    17:00 +28°C° 0,3 mm 1 m/S 688 mmHg 68%
    18:00 +27°C° 0,3 mm 1 m/S 687 mmHg 74%
    19:00 +26°C° 0,3 mm 1 m/S 688 mmHg 76%
    20:00 +25°C° 0,3 mm 1 m/S 688 mmHg 78%
    21:00 +23°C° 0,3 mm 2 m/S 688 mmHg 80%
    22:00 +23°C° 0,4 mm 2 m/S 688 mmHg 83%
    23:00 +21°C° 0,4 mm 2 m/S 688 mmHg 86%

    Morgen, 21 Januar, Sonntag

    Zeit Temperatur Niederschläge Wind Luftdruck Luftfeuchtigkeit
    00:00 +21°C° 0,4 mm 2 m/S 689 mmHg 89%
    01:00 +21°C° 0,3 mm 2 m/S 688 mmHg 89%
    02:00 +21°C° 0,3 mm 2 m/S 688 mmHg 90%
    03:00 +20°C° 0,3 mm 2 m/S 687 mmHg 90%
    04:00 +20°C° 0,2 mm 2 m/S 687 mmHg 90%
    05:00 +20°C° 0,2 mm 2 m/S 687 mmHg 90%
    06:00 +20°C° 0,2 mm 2 m/S 687 mmHg 90%
    07:00 +21°C° 0,1 mm 2 m/S 688 mmHg 89%
    08:00 +23°C° 0,1 mm 2 m/S 688 mmHg 89%
    09:00 +23°C° 0,1 mm 2 m/S 689 mmHg 88%
    10:00 +25°C° 0,4 mm 2 m/S 689 mmHg 82%
    11:00 +26°C° 0,4 mm 2 m/S 689 mmHg 77%
    12:00 +28°C° 0,4 mm 1 m/S 689 mmHg 71%
    13:00 +28°C° 0,4 mm 1 m/S 688 mmHg 69%
    14:00 +29°C° 0,4 mm 2 m/S 688 mmHg 66%
    15:00 +29°C° 0,4 mm 2 m/S 687 mmHg 63%
    16:00 +28°C° 0,7 mm 1 m/S 687 mmHg 69%
    17:00 +27°C° 0,7 mm 1 m/S 687 mmHg 75%
    18:00 +26°C° 0,7 mm 1 m/S 686 mmHg 82%
    19:00 +25°C° 0,2 mm 1 m/S 687 mmHg 82%
    20:00 +24°C° 0,2 mm 1 m/S 687 mmHg 83%
    21:00 +23°C° 0,2 mm 1 m/S 687 mmHg 84%
    22:00 +22°C° 0,3 mm 1 m/S 687 mmHg 86%
    23:00 +22°C° 0,3 mm 1 m/S 687 mmHg 87%

    übermorgen, 22 Januar, Montag

    Zeit Temperatur Niederschläge Wind Luftdruck Luftfeuchtigkeit
    00:00 +21°C° 0,3 mm 2 m/S 687 mmHg 88%
    01:00 +21°C° 0 mm 1 m/S 687 mmHg 89%
    02:00 +21°C° 0 mm 1 m/S 686 mmHg 89%
    03:00 +21°C° 0 mm 1 m/S 686 mmHg 89%
    04:00 +20°C° 0 mm 1 m/S 686 mmHg 90%
    05:00 +20°C° 0 mm 1 m/S 686 mmHg 90%
    06:00 +20°C° 0 mm 1 m/S 686 mmHg 91%
    07:00 +22°C° 0,1 mm 1 m/S 687 mmHg 85%
    08:00 +24°C° 0,1 mm 1 m/S 687 mmHg 80%
    09:00 +26°C° 0,1 mm 1 m/S 688 mmHg 75%
    10:00 +27°C° 0,5 mm 2 m/S 688 mmHg 72%
    11:00 +28°C° 0,5 mm 2 m/S 688 mmHg 69%
    12:00 +29°C° 0,5 mm 2 m/S 688 mmHg 66%
    13:00 +29°C° 0,4 mm 2 m/S 687 mmHg 66%
    14:00 +29°C° 0,4 mm 2 m/S 686 mmHg 67%
    15:00 +29°C° 0,4 mm 2 m/S 686 mmHg 67%
    16:00 +28°C° 0,3 mm 1 m/S 686 mmHg 71%
    17:00 +27°C° 0,3 mm 1 m/S 686 mmHg 75%
    18:00 +27°C° 0,3 mm 1 m/S 685 mmHg 79%
    19:00 +25°C° 0,1 mm 1 m/S 686 mmHg 80%
    20:00 +24°C° 0,1 mm 1 m/S 686 mmHg 82%
    21:00 +23°C° 0,1 mm 1 m/S 686 mmHg 84%
    22:00 +22°C° 0,1 mm 1 m/S 686 mmHg 85%
    23:00 +22°C° 0,1 mm 1 m/S 686 mmHg 86%

    23 Januar, Dienstag

    Zeit Temperatur Niederschläge Wind Luftdruck Luftfeuchtigkeit
    00:00 +21°C° 0,1 mm 1 m/S 686 mmHg 87%
    01:00 +21°C° 0 mm 1 m/S 686 mmHg 87%
    02:00 +21°C° 0 mm 1 m/S 685 mmHg 87%
    03:00 +21°C° 0 mm 1 m/S 685 mmHg 87%
    04:00 +21°C° 0 mm 1 m/S 685 mmHg 87%
    05:00 +21°C° 0 mm 1 m/S 686 mmHg 86%
    06:00 +21°C° 0 mm 1 m/S 686 mmHg 86%
    07:00 +23°C° 0 mm 1 m/S 687 mmHg 82%
    08:00 +25°C° 0 mm 1 m/S 687 mmHg 78%
    09:00 +27°C° 0 mm 1 m/S 688 mmHg 74%
    10:00 +28°C° 0,2 mm 2 m/S 688 mmHg 69%
    11:00 +29°C° 0,2 mm 2 m/S 688 mmHg 64%
    12:00 +30°C° 0,2 mm 2 m/S 688 mmHg 60%
    13:00 +30°C° 0,4 mm 2 m/S 687 mmHg 61%
    14:00 +30°C° 0,4 mm 2 m/S 686 mmHg 61%
    15:00 +30°C° 0,4 mm 2 m/S 686 mmHg 62%
    16:00 +29°C° 0,7 mm 2 m/S 686 mmHg 68%
    17:00 +28°C° 0,7 mm 1 m/S 686 mmHg 73%
    18:00 +27°C° 0,7 mm 1 m/S 686 mmHg 79%
    19:00 +26°C° 0,5 mm 1 m/S 686 mmHg 81%
    20:00 +24°C° 0,5 mm 1 m/S 686 mmHg 83%
    21:00 +23°C° 0,5 mm 1 m/S 686 mmHg 85%
    22:00 +23°C° 0,8 mm 1 m/S 686 mmHg 87%
    23:00 +21°C° 0,8 mm 2 m/S 686 mmHg 89%

    24 Januar, Mittwoch

    Zeit Temperatur Niederschläge Wind Luftdruck Luftfeuchtigkeit
    00:00 +21°C° 0,8 mm 2 m/S 686 mmHg 91%
    01:00 +20°C° 0,2 mm 2 m/S 686 mmHg 91%
    02:00 +20°C° 0,2 mm 2 m/S 685 mmHg 91%
    03:00 +20°C° 0,2 mm 2 m/S 685 mmHg 92%
    04:00 +21°C° 0 mm 1 m/S 685 mmHg 91%
    05:00 +21°C° 0 mm 1 m/S 685 mmHg 91%
    06:00 +21°C° 0 mm 1 m/S 686 mmHg 91%
    07:00 +22°C° 0 mm 1 m/S 686 mmHg 87%
    08:00 +24°C° 0 mm 1 m/S 687 mmHg 82%
    09:00 +26°C° 0 mm 1 m/S 688 mmHg 77%
    10:00 +27°C° 0,5 mm 2 m/S 688 mmHg 73%
    11:00 +28°C° 0,5 mm 2 m/S 687 mmHg 69%
    12:00 +29°C° 0,5 mm 2 m/S 687 mmHg 65%
    13:00 +29°C° 0,6 mm 2 m/S 687 mmHg 66%
    14:00 +30°C° 0,6 mm 2 m/S 686 mmHg 67%
    15:00 +30°C° 0,6 mm 2 m/S 686 mmHg 68%
    16:00 +28°C° 1,4 mm 2 m/S 686 mmHg 75%
    17:00 +27°C° 1,4 mm 2 m/S 686 mmHg 82%
    18:00 +26°C° 1,4 mm 1 m/S 686 mmHg 89%
    19:00 +25°C° 0,6 mm 1 m/S 686 mmHg 89%
    20:00 +24°C° 0,6 mm 1 m/S 686 mmHg 90%
    21:00 +21°C° 0,6 mm 0 m/S 686 mmHg 91%
    22:00 +20°C° 0,1 mm 0 m/S 686 mmHg 91%
    23:00 +20°C° 0,1 mm 0 m/S 686 mmHg 91%

    25 Januar, Donnerstag

    Zeit Temperatur Niederschläge Wind Luftdruck Luftfeuchtigkeit
    00:00 +20°C° 0,1 mm 0 m/S 686 mmHg 91%
    01:00 +20°C° 0 mm 0 m/S 685 mmHg 92%
    02:00 +20°C° 0 mm 0 m/S 685 mmHg 92%
    03:00 +21°C° 0 mm 1 m/S 685 mmHg 92%
    04:00 +21°C° 0 mm 1 m/S 685 mmHg 92%
    05:00 +21°C° 0 mm 1 m/S 685 mmHg 92%
    06:00 +19°C° 0 mm 0 m/S 685 mmHg 93%
    07:00 +22°C° 0 mm 1 m/S 685 mmHg 90%
    08:00 +24°C° 0 mm 1 m/S 686 mmHg 88%
    09:00 +25°C° 0 mm 1 m/S 686 mmHg 85%
    10:00 +27°C° 0,1 mm 1 m/S 686 mmHg 79%
    11:00 +28°C° 0,1 mm 1 m/S 686 mmHg 72%
    12:00 +30°C° 0,1 mm 1 m/S 686 mmHg 66%
    13:00 +30°C° 0,1 mm 1 m/S 686 mmHg 64%
    14:00 +31°C° 0,1 mm 1 m/S 685 mmHg 62%
    15:00 +31°C° 0,1 mm 1 m/S 685 mmHg 59%
    16:00 +30°C° 1,3 mm 1 m/S 684 mmHg 68%
    17:00 +28°C° 1,3 mm 1 m/S 684 mmHg 77%
    18:00 +27°C° 1,3 mm 1 m/S 684 mmHg 86%
    19:00 +26°C° 0,7 mm 1 m/S 684 mmHg 88%
    20:00 +24°C° 0,7 mm 1 m/S 684 mmHg 91%
    21:00 +23°C° 0,7 mm 1 m/S 684 mmHg 93%
    22:00 +23°C° 2,1 mm 1 m/S 684 mmHg 94%
    23:00 +23°C° 2,1 mm 1 m/S 684 mmHg 94%
    Mehr zeigen